GW1804 Weather Reports


time (UTC)temp
C
wind
direction
speed
KPH
gust
KPH
rain 1hr
cm
rain 24hr
cm
rain mn
cm
humidity
%
barometer
mb
20260902100057 18 0 0.0 0.0 0.00 0.00 0.00 88 1015.7
20260902095534 18 0 0.0 0.0 0.00 0.00 0.00 88 1015.8
20260902095037 18 0 0.0 0.0 0.00 0.00 0.00 88 1015.7
20260902094552 18 0 0.0 0.0 0.00 0.00 0.00 88 1015.8
20260902094035 18 0 0.0 0.0 0.00 0.00 0.00 88 1015.8
20260902093532 18 0 0.0 0.0 0.00 0.00 0.00 88 1015.8
20260902093051 18 0 0.0 0.0 0.00 0.00 0.00 88 1015.8
20260902092531 18 0 0.0 0.0 0.00 0.00 0.00 88 1015.8
20260902092035 18 0 0.0 0.0 0.00 0.00 0.00 88 1015.9
20260902091556 18 0 0.0 0.0 0.00 0.00 0.00 88 1016.0
20260902091035 18 0 0.0 0.0 0.00 0.00 0.00 87 1016.0
20260902090535 18 0 0.0 0.0 0.00 0.00 0.00 87 1016.0
20260902090057 18 0 0.0 0.0 0.00 0.00 0.00 87 1016.1
20260902085534 18 0 0.0 0.0 0.00 0.00 0.00 87 1016.1
20260902085034 18 0 0.0 0.0 0.00 0.00 0.00 87 1016.1
20260902084556 18 0 0.0 0.0 0.00 0.00 0.00 87 1016.1
20260902084035 18 0 0.0 0.0 0.00 0.00 0.00 87 1016.2
20260902083536 18 0 0.0 0.0 0.00 0.00 0.00 87 1016.2
20260902083055 18 0 0.0 0.0 0.00 0.00 0.00 87 1016.1
20260902082531 18 0 0.0 0.0 0.00 0.00 0.00 87 1016.0
20260902082035 18 0 0.0 0.0 0.00 0.00 0.00 86 1016.0
20260902081557 18 0 0.0 0.0 0.00 0.00 0.00 86 1016.1
20260902081031 18 0 0.0 1.6 0.00 0.00 0.00 86 1016.1
20260902080535 18 0 0.0 1.6 0.00 0.00 0.00 86 1016.0
20260902080054 18 0 0.0 1.6 0.00 0.00 0.00 86 1016.1
20260902075534 19 0 0.0 0.0 0.00 0.00 0.00 86 1016.1
20260902075035 19 0 0.0 0.0 0.00 0.00 0.00 86 1016.1
20260902074551 19 0 0.0 0.0 0.00 0.00 0.00 86 1016.1
20260902074034 19 0 0.0 0.0 0.00 0.00 0.00 86 1016.0
20260902073534 19 0 0.0 0.0 0.00 0.00 0.00 86 1015.9
20260902073051 19 0 0.0 0.0 0.00 0.00 0.00 86 1016.0
20260902072538 19 0 0.0 0.0 0.00 0.00 0.00 86 1015.9
20260902072036 19 0 0.0 0.0 0.00 0.00 0.00 86 1015.9
20260902071558 19 0 0.0 0.0 0.00 0.00 0.00 86 1015.9
20260902071031 19 0 0.0 0.0 0.00 0.00 0.00 86 1015.8
20260902070532 19 0 0.0 0.0 0.00 0.00 0.00 86 1015.9
20260902070100 20 0 0.0 0.0 0.00 0.00 0.00 86 1015.8
20260902065537 20 0 0.0 0.0 0.00 0.00 0.00 86 1015.8
20260902065035 20 0 0.0 1.6 0.00 0.00 0.00 86 1015.8
20260902064604 20 0 0.0 1.6 0.00 0.00 0.00 86 1015.7
20260902064037 20 0 0.0 1.6 0.00 0.00 0.00 86 1015.7
20260902063534 20 0 0.0 1.6 0.00 0.00 0.00 86 1015.7
20260902063104 20 0 0.0 1.6 0.00 0.00 0.00 86 1015.6
20260902062536 20 0 0.0 3.2 0.00 0.00 0.00 86 1015.7
20260902062032 20 5 0.0 3.2 0.00 0.00 0.00 86 1015.7
20260902061622 20 0 0.0 1.6 0.00 0.00 0.00 86 1015.6
20260902061036 20 350 0.0 1.6 0.00 0.00 0.00 86 1015.6
20260902060531 20 0 0.0 1.6 0.00 0.00 0.00 86 1015.6
20260902060058 20 0 0.0 1.6 0.00 0.00 0.00 86 1015.6
20260902055533 20 0 0.0 1.6 0.00 0.00 0.00 87 1015.6
20260902055035 20 0 0.0 1.6 0.00 0.00 0.00 87 1015.6
20260902054554 20 0 0.0 1.6 0.00 0.00 0.00 87 1015.5
20260902054031 20 0 0.0 1.6 0.00 0.00 0.00 86 1015.6
20260902053532 20 0 0.0 1.6 0.00 0.00 0.00 86 1015.6
20260902053052 20 0 0.0 1.6 0.00 0.00 0.00 86 1015.6
20260902052532 20 0 0.0 0.0 0.00 0.00 0.00 86 1015.6
20260902052032 20 0 0.0 0.0 0.00 0.00 0.00 86 1015.7
20260902051614 20 0 0.0 0.0 0.00 0.00 0.00 86 1015.7
20260902051031 20 0 0.0 0.0 0.00 0.00 0.00 86 1015.7
20260902050531 20 0 0.0 1.6 0.00 0.00 0.00 86 1015.6
20260902050057 20 0 0.0 1.6 0.00 0.00 0.00 86 1015.7
20260902045534 20 0 0.0 1.6 0.00 0.00 0.00 86 1015.7
20260902045035 20 0 0.0 1.6 0.00 0.00 0.00 86 1015.7
20260902044607 20 0 0.0 1.6 0.00 0.00 0.00 86 1015.6
20260902044032 20 0 0.0 1.6 0.00 0.00 0.00 86 1015.6
20260902043534 20 0 0.0 1.6 0.00 0.00 0.00 86 1015.5
20260902043051 20 0 0.0 1.6 0.00 0.00 0.00 86 1015.4
20260902042535 20 0 0.0 3.2 0.00 0.00 0.00 86 1015.4
20260902042034 20 0 0.0 3.2 0.00 0.00 0.00 86 1015.2
20260902041604 20 0 0.0 1.6 0.00 0.00 0.00 86 1015.1
20260902041034 20 0 0.0 1.6 0.00 0.00 0.00 86 1015.0
20260902040534 20 0 0.0 1.6 0.00 0.00 0.00 85 1015.0
20260902040058 20 0 0.0 1.6 0.00 0.00 0.00 85 1014.8
20260902035530 20 0 0.0 4.8 0.00 0.00 0.00 85 1014.6
20260902035034 20 0 0.0 4.8 0.00 0.00 0.00 85 1014.6
20260902034604 21 308 0.0 4.8 0.00 0.00 0.00 86 1014.5
20260902034032 21 308 0.0 4.8 0.00 0.00 0.00 85 1014.4
20260902033534 21 0 0.0 4.8 0.00 0.00 0.00 85 1014.3
20260902033051 21 0 0.0 6.4 0.00 0.00 0.00 85 1014.2
20260902032535 21 305 1.6 6.4 0.00 0.00 0.00 85 1014.1
20260902032033 21 305 1.6 4.8 0.00 0.00 0.00 85 1014.1
20260902031617 21 254 0.0 4.8 0.00 0.00 0.00 84 1014.1
20260902031031 21 0 0.0 4.8 0.00 0.00 0.00 84 1014.1
20260902030534 21 315 0.0 4.8 0.00 0.00 0.00 83 1014.1
20260902030057 21 0 0.0 4.8 0.00 0.00 0.00 83 1014.1
20260902025535 21 296 1.6 4.8 0.00 0.00 0.00 83 1014.0
20260902025034 21 294 0.0 4.8 0.00 0.00 0.00 82 1014.0
20260902024559 21 311 1.6 6.4 0.00 0.00 0.00 82 1014.0
20260902024031 21 308 1.6 6.4 0.00 0.00 0.00 81 1013.9
20260902023531 21 305 1.6 6.4 0.00 0.00 0.00 81 1013.9
20260902023104 21 287 1.6 6.4 0.00 0.00 0.00 81 1013.9
20260902022532 21 265 3.2 6.4 0.00 0.00 0.00 81 1013.9
20260902022031 21 298 3.2 4.8 0.00 0.00 0.00 81 1013.9
20260902021600 22 263 1.6 6.4 0.00 0.00 0.00 81 1014.0
20260902021034 22 284 1.6 6.4 0.00 0.00 0.00 81 1014.1
20260902020535 22 248 3.2 11.3 0.00 0.00 0.00 80 1014.1
20260902020053 22 306 3.2 11.3 0.00 0.00 0.00 80 1014.0
20260902015531 22 253 3.2 8.0 0.00 0.00 0.00 79 1014.1
20260902015031 22 278 3.2 8.0 0.00 0.00 0.00 79 1014.1
20260902014552 22 261 1.6 9.7 0.00 0.00 0.00 78 1014.1
20260902014037 22 265 4.8 9.7 0.00 0.00 0.00 77 1014.1
20260902013534 23 248 3.2 11.3 0.00 0.00 0.00 77 1014.0
20260902013105 23 287 3.2 12.9 0.00 0.00 0.00 76 1014.0
20260902012533 23 298 4.8 12.9 0.00 0.00 0.00 75 1014.0
20260902012032 23 318 4.8 12.9 0.00 0.00 0.00 75 1014.0
20260902011555 23 271 4.8 12.9 0.00 0.00 0.00 75 1014.0
20260902011034 23 288 3.2 11.3 0.00 0.00 0.00 75 1014.0
20260902010532 23 275 4.8 12.9 0.00 0.00 0.00 75 1014.0
20260902010059 23 308 3.2 12.9 0.00 0.00 0.00 75 1014.0
20260902005532 23 304 4.8 12.9 0.00 0.00 0.00 74 1014.0
20260902005032 23 274 4.8 12.9 0.00 0.00 0.00 74 1014.0
20260902004552 23 241 6.4 12.9 0.00 0.00 0.00 73 1014.1
20260902004032 23 300 3.2 12.9 0.00 0.00 0.00 73 1014.1
20260902003531 23 325 4.8 12.9 0.00 0.00 0.00 73 1014.1
20260902003102 23 302 4.8 12.9 0.00 0.00 0.00 73 1014.0
20260902002532 23 302 3.2 14.5 0.00 0.00 0.00 73 1014.0
20260902002031 23 307 4.8 14.5 0.00 0.00 0.00 74 1014.0
20260902001554 23 280 6.4 14.5 0.00 0.00 0.00 74 1014.0
20260902001032 23 316 4.8 14.5 0.00 0.00 0.00 75 1013.9
20260902000532 23 278 4.8 17.7 0.00 0.00 0.00 75 1014.0
20260902000055 23 300 8.0 17.7 0.00 0.00 0.00 74 1014.0
20260901235532 23 287 6.4 16.1 0.00 0.00 0.00 74 1014.0
20260901235034 23 312 6.4 16.1 0.00 0.00 0.00 75 1014.2
20260901234550 23 273 8.0 16.1 0.00 0.00 0.00 75 1014.2
20260901234032 23 252 6.4 14.5 0.00 0.00 0.00 75 1014.3
20260901233531 23 265 8.0 17.7 0.00 0.00 0.00 75 1014.4
20260901233104 23 315 8.0 17.7 0.00 0.00 0.00 75 1014.4
20260901232536 23 346 8.0 17.7 0.00 0.00 0.00 75 1014.5
20260901232032 23 243 8.0 17.7 0.00 0.00 0.00 75 1014.3
20260901231607 23 327 9.7 19.3 0.00 0.00 0.00 75 1014.3
20260901231031 23 217 8.0 19.3 0.00 0.00 0.00 75 1014.3
20260901230532 23 274 11.3 19.3 0.00 0.00 0.00 74 1014.3
20260901230105 23 304 6.4 17.7 0.00 0.00 0.00 75 1014.4
20260901225531 23 244 8.0 17.7 0.00 0.00 0.00 75 1014.3
20260901225031 23 237 9.7 17.7 0.00 0.00 0.00 75 1014.5
20260901224551 23 308 8.0 17.7 0.00 0.00 0.00 75 1014.4
20260901224032 24 300 8.0 19.3 0.00 0.00 0.00 75 1014.5
20260901223532 24 272 9.7 19.3 0.00 0.00 0.00 75 1014.5
20260901223056 24 265 12.9 20.9 0.00 0.00 0.00 75 1014.6
20260901222533 24 331 8.0 20.9 0.00 0.00 0.00 75 1014.5
20260901222036 24 263 8.0 19.3 0.00 0.00 0.00 75 1014.5
20260901221610 24 281 9.7 20.9 0.00 0.00 0.00 76 1014.6
20260901221032 24 306 11.3 20.9 0.00 0.00 0.00 75 1014.6
20260901220532 24 300 9.7 20.9 0.00 0.00 0.00 75 1014.7
20260901220055 24 277 11.3 20.9 0.00 0.00 0.00 74 1014.7
20260901215535 25 243 9.7 20.9 0.00 0.00 0.00 74 1014.7
20260901215033 25 277 8.0 19.3 0.00 0.00 0.00 73 1014.8
20260901214551 25 317 8.0 19.3 0.00 0.00 0.00 73 1014.9
20260901214033 25 254 9.7 17.7 0.00 0.00 0.00 74 1014.9
20260901213537 25 296 8.0 17.7 0.00 0.00 0.00 74 1014.9
20260901213058 25 308 9.7 17.7 0.00 0.00 0.00 73 1014.9
20260901212536 25 267 9.7 17.7 0.00 0.00 0.00 72 1014.9
20260901212036 25 246 8.0 17.7 0.00 0.00 0.00 73 1015.0
20260901211557 25 315 9.7 17.7 0.00 0.00 0.00 72 1015.0
20260901211035 25 277 9.7 17.7 0.00 0.00 0.00 72 1015.0
20260901210534 25 300 8.0 17.7 0.00 0.00 0.00 72 1015.0
20260901205535 25 306 6.4 19.3 0.00 0.00 0.00 71 1015.0
20260901205036 25 304 6.4 16.1 0.00 0.00 0.00 72 1015.0
20260901204602 25 349 8.0 16.1 0.00 0.00 0.00 71 1015.1
20260901204032 25 309 8.0 16.1 0.00 0.00 0.00 71 1015.1
20260901203533 25 280 9.7 16.1 0.00 0.00 0.00 71 1015.0
20260901203059 25 271 4.8 16.1 0.00 0.00 0.00 71 1015.1
20260901202536 25 309 4.8 16.1 0.00 0.00 0.00 71 1015.0
20260901202037 25 284 9.7 17.7 0.00 0.00 0.00 72 1015.1
20260901201557 25 307 4.8 17.7 0.00 0.00 0.00 73 1015.2
20260901201037 25 315 8.0 17.7 0.00 0.00 0.00 73 1015.2
20260901200535 25 307 8.0 20.9 0.00 0.00 0.00 72 1015.2
20260901200052 24 272 8.0 20.9 0.00 0.00 0.00 72 1015.3
20260901195536 25 334 8.0 14.5 0.00 0.00 0.00 72 1015.3
20260901195038 25 333 8.0 16.1 0.00 0.00 0.00 73 1015.3
20260901194559 25 236 8.0 16.1 0.00 0.00 0.00 72 1015.4
20260901194036 25 300 6.4 14.5 0.00 0.00 0.00 72 1015.4
20260901193535 25 306 6.4 12.9 0.00 0.00 0.00 74 1015.5
20260901193100 25 251 8.0 12.9 0.00 0.00 0.00 72 1015.5
20260901192537 24 293 6.4 12.9 0.00 0.00 0.00 72 1015.6
20260901192036 24 322 6.4 12.9 0.00 0.00 0.00 72 1015.6
20260901191556 24 245 6.4 12.9 0.00 0.00 0.00 73 1015.6
20260901191035 24 290 6.4 14.5 0.00 0.00 0.00 73 1015.6
20260901190536 24 296 8.0 17.7 0.00 0.00 0.00 73 1015.6
20260901190051 24 299 8.0 17.7 0.00 0.00 0.00 74 1015.7
20260901185536 24 279 6.4 14.5 0.00 0.00 0.00 74 1015.7
20260901185033 24 306 4.8 14.5 0.00 0.00 0.00 74 1015.7
20260901184605 23 238 4.8 14.5 0.00 0.00 0.00 74 1015.7
20260901184035 23 306 6.4 14.5 0.00 0.00 0.00 74 1015.7
20260901183537 23 290 4.8 14.5 0.00 0.00 0.00 74 1015.7
20260901183118 23 303 6.4 12.9 0.00 0.00 0.00 74 1015.8
20260901182533 23 244 6.4 12.9 0.00 0.00 0.00 75 1015.8
20260901182032 23 290 6.4 12.9 0.00 0.00 0.00 75 1015.8
20260901181554 23 259 4.8 11.3 0.00 0.00 0.00 76 1015.8
20260901181031 23 298 4.8 11.3 0.00 0.00 0.00 77 1015.8
20260901180536 23 292 4.8 12.9 0.00 0.00 0.00 76 1015.9
20260901180100 23 280 4.8 12.9 0.00 0.00 0.00 77 1015.9
20260901175533 23 261 3.2 12.9 0.00 0.00 0.00 78 1015.8
20260901175032 23 291 3.2 12.9 0.00 0.00 0.00 79 1015.7
20260901174558 23 280 3.2 12.9 0.00 0.00 0.00 79 1015.7
20260901174031 23 235 3.2 12.9 0.00 0.00 0.00 79 1015.7
20260901173531 22 41 4.8 12.9 0.00 0.00 0.00 79 1015.8
20260901173138 22 304 3.2 11.3 0.00 0.00 0.00 79 1015.7
20260901172533 22 277 4.8 11.3 0.00 0.00 0.00 80 1015.7
20260901172032 22 263 4.8 11.3 0.00 0.00 0.00 81 1015.7
20260901171604 22 292 3.2 9.7 0.00 0.00 0.00 81 1015.6
20260901171034 22 309 3.2 11.3 0.00 0.00 0.00 81 1015.7
20260901170532 22 290 3.2 11.3 0.00 0.00 0.00 82 1015.6
20260901170101 22 326 3.2 11.3 0.00 0.00 0.00 82 1015.6
20260901165535 21 273 3.2 9.7 0.00 0.00 0.00 83 1015.6
20260901165032 21 295 3.2 9.7 0.00 0.00 0.00 83 1015.5
20260901164553 21 302 1.6 9.7 0.00 0.00 0.00 83 1015.5
20260901164031 21 334 3.2 9.7 0.00 0.00 0.00 84 1015.5
20260901163531 21 254 1.6 9.7 0.00 0.00 0.00 84 1015.6
20260901163109 21 221 3.2 9.7 0.00 0.00 0.00 85 1015.6
20260901162532 21 349 1.6 9.7 0.00 0.00 0.00 85 1015.6
20260901162035 20 17 1.6 9.7 0.00 0.00 0.00 86 1015.6
20260901161606 20 15 0.0 6.4 0.00 0.00 0.00 87 1015.5
20260901161031 20 284 1.6 6.4 0.00 0.00 0.00 87 1015.4
20260901160532 20 0 3.2 8.0 0.00 0.00 0.00 87 1015.5
20260901160058 20 312 1.6 8.0 0.00 0.00 0.00 87 1015.4
20260901155532 20 309 1.6 6.4 0.00 0.00 0.00 88 1015.3
20260901155032 20 319 1.6 6.4 0.00 0.00 0.00 89 1015.4
20260901154554 20 0 0.0 6.4 0.00 0.00 0.00 90 1015.3
20260901154033 20 319 1.6 8.0 0.00 0.00 0.00 90 1015.3
20260901153533 20 290 3.2 8.0 0.00 0.00 0.00 91 1015.3
20260901153052 19 0 0.0 4.8 0.00 0.00 0.00 91 1015.2
20260901152534 19 19 1.6 4.8 0.00 0.00 0.00 91 1015.2
20260901152033 19 12 0.0 1.6 0.00 0.00 0.00 91 1015.2
20260901151602 19 0 0.0 1.6 0.00 0.00 0.00 91 1015.1
20260901151031 18 0 0.0 1.6 0.00 0.00 0.00 91 1015.0
20260901150532 18 0 0.0 1.6 0.00 0.00 0.00 91 1015.0
20260901150056 18 0 0.0 0.0 0.00 0.00 0.00 91 1015.0
20260901145533 18 0 0.0 1.6 0.00 0.00 0.00 91 1014.9
20260901145031 18 0 0.0 1.6 0.00 0.00 0.00 91 1015.0
20260901144553 18 0 0.0 1.6 0.00 0.00 0.00 91 1015.0
20260901144034 18 0 0.0 0.0 0.00 0.00 0.00 91 1014.9
20260901143531 18 0 0.0 0.0 0.00 0.00 0.00 91 1014.9
20260901143059 18 0 0.0 0.0 0.00 0.00 0.00 91 1014.9
20260901142533 18 0 0.0 0.0 0.00 0.00 0.00 91 1014.8
20260901142033 18 0 0.0 0.0 0.00 0.00 0.00 91 1014.9
20260901141604 18 0 0.0 0.0 0.00 0.00 0.00 90 1014.9
20260901141032 18 0 0.0 0.0 0.00 0.00 0.00 90 1014.9
20260901140531 18 0 0.0 0.0 0.00 0.00 0.00 90 1014.9
20260901140052 18 0 0.0 0.0 0.00 0.00 0.00 90 1014.8
20260901135532 18 0 0.0 0.0 0.00 0.00 0.00 90 1014.7
20260901135033 18 0 0.0 0.0 0.00 0.00 0.00 90 1014.6
20260901134553 18 0 0.0 0.0 0.00 0.00 0.00 90 1014.7
20260901134031 18 0 0.0 0.0 0.00 0.00 0.00 90 1014.5
20260901133536 18 0 0.0 0.0 0.00 0.00 0.00 90 1014.5
20260901133106 18 0 0.0 0.0 0.00 0.00 0.00 90 1014.3
20260901132532 18 0 0.0 0.0 0.00 0.00 0.00 89 1014.3
20260901132031 18 0 0.0 0.0 0.00 0.00 0.00 89 1014.3
20260901131557 18 0 0.0 0.0 0.00 0.00 0.00 89 1014.2
20260901131035 18 0 0.0 0.0 0.00 0.00 0.00 89 1014.2
20260901130532 18 0 0.0 0.0 0.00 0.00 0.00 89 1014.0
20260901130055 18 0 0.0 0.0 0.00 0.00 0.00 89 1014.1
20260901125531 18 0 0.0 0.0 0.00 0.00 0.00 89 1014.1
20260901125032 18 0 0.0 0.0 0.00 0.00 0.00 89 1014.0
20260901124552 18 0 0.0 0.0 0.00 0.00 0.00 89 1013.9
20260901124033 18 0 0.0 0.0 0.00 0.00 0.00 88 1013.8
20260901123532 18 0 0.0 0.0 0.00 0.00 0.00 89 1013.9
20260901123101 18 0 0.0 0.0 0.00 0.00 0.00 89 1013.9
20260901122531 18 0 0.0 0.0 0.00 0.00 0.00 89 1013.9
20260901122032 18 0 0.0 0.0 0.00 0.00 0.00 89 1013.8
20260901121559 18 0 0.0 0.0 0.00 0.00 0.00 89 1013.8
20260901121035 18 0 0.0 0.0 0.00 0.00 0.00 88 1013.8
20260901120535 18 0 0.0 0.0 0.00 0.00 0.00 88 1013.8
20260901120105 18 0 0.0 0.0 0.00 0.00 0.00 88 1013.8
20260901115531 18 0 0.0 0.0 0.00 0.00 0.00 88 1013.8
20260901115035 18 0 0.0 0.0 0.00 0.00 0.00 88 1013.8
20260901114551 18 0 0.0 0.0 0.00 0.00 0.00 88 1013.8
20260901114035 18 0 0.0 0.0 0.00 0.00 0.00 88 1013.9
20260901113535 19 0 0.0 0.0 0.00 0.00 0.00 88 1014.0
20260901113058 19 0 0.0 0.0 0.00 0.00 0.00 88 1014.0
20260901112535 19 0 0.0 1.6 0.00 0.00 0.00 88 1014.0
20260901112035 19 0 0.0 3.2 0.00 0.00 0.00 89 1014.0
20260901111559 19 38 0.0 3.2 0.00 0.00 0.00 89 1014.0
20260901111035 19 0 0.0 3.2 0.00 0.00 0.00 89 1014.0
20260901110531 19 0 0.0 3.2 0.00 0.00 0.00 89 1014.0
20260901110054 19 0 0.0 1.6 0.00 0.00 0.00 89 1014.0
20260901105535 19 0 0.0 1.6 0.00 0.00 0.00 89 1014.0
20260901105036 20 0 0.0 3.2 0.00 0.00 0.00 89 1014.1
20260901104602 20 0 0.0 3.2 0.00 0.00 0.00 89 1014.1
20260901104038 20 127 0.0 1.6 0.00 0.00 0.00 89 1014.1
20260901103536 20 0 0.0 1.6 0.00 0.00 0.00 89 1014.1
20260901103058 20 0 0.0 1.6 0.00 0.00 0.00 89 1014.0
20260901102535 20 0 0.0 1.6 0.00 0.00 0.00 89 1014.0
20260901102035 20 0 0.0 0.0 0.00 0.00 0.00 89 1014.0
20260901101605 20 0 0.0 0.0 0.00 0.00 0.00 89 1014.1
20260901101035 20 0 0.0 0.0 0.00 0.00 0.00 89 1014.1
20260901100538 20 0 0.0 0.0 0.00 0.00 0.00 89 1014.2